EW8728 Weather Reports


time (UTC)temp
C
wind
direction
speed
KPH
gust
KPH
rain 1hr
cm
rain 24hr
cm
rain mn
cm
humidity
%
barometer
mb
20260502194606 17 117 0.0 0.0 0.00 0.00 0.00 52 1014.7
20260502193055 17 117 0.0 0.0 0.00 0.00 0.00 53 1014.7
20260502191558 18 117 0.0 0.0 0.00 0.00 0.00 52 1014.6
20260502190051 18 117 0.0 0.0 0.00 0.00 0.00 47 1014.5
20260502184550 19 117 0.0 1.6 0.00 0.00 0.00 45 1014.5
20260502183050 20 117 0.0 1.6 0.00 0.00 0.00 47 1014.4
20260502181549 21 117 0.0 0.0 0.00 0.00 0.00 45 1014.3
20260502163043 25 100 0.0 0.0 0.00 0.00 0.00 33 1014.4
20260502161543 26 106 0.0 0.0 0.00 0.00 0.00 34 1014.5
20260502151524 25 92 0.0 0.0 0.00 0.00 0.00 35 1015.2
20260502123045 25 32 0.0 0.0 0.00 0.00 0.00 41 1017.7
20260502121541 25 36 0.0 0.0 0.00 0.00 0.00 42 1017.8
20260502114538 23 22 0.0 0.0 0.00 0.00 0.00 46 1018.5
20260502113033 23 216 0.0 0.0 0.00 0.00 0.00 48 1018.8
20260502111527 22 355 0.0 0.0 0.00 0.00 0.00 51 1019.0
20260502110024 21 9 0.0 0.0 0.00 0.00 0.00 51 1019.3
20260502104519 21 344 0.0 0.0 0.00 0.00 0.00 54 1019.6
20260502103036 20 325 0.0 0.0 0.00 0.00 0.00 55 1019.7
20260502101511 19 26 0.0 0.0 0.00 0.00 0.00 55 1020.0
20260502090109 16 360 0.0 0.0 0.00 0.00 0.00 61 1020.9
20260502071536 13 291 0.0 0.0 0.00 0.00 0.00 66 1021.4
20260502070033 13 291 0.0 0.0 0.00 0.00 0.00 70 1021.4
20260502064536 12 291 0.0 0.0 0.00 0.00 0.00 76 1021.4
20260502063027 11 291 0.0 0.0 0.00 0.00 0.00 79 1021.4
20260502061523 11 291 0.0 0.0 0.00 0.00 0.00 77 1021.5
20260502060019 10 291 0.0 0.0 0.00 0.00 0.00 73 1021.5
20260502054515 10 291 0.0 0.0 0.00 0.00 0.00 76 1021.4
20260502053014 10 291 0.0 0.0 0.00 0.00 0.00 75 1021.4
20260502051515 10 291 0.0 0.0 0.00 0.00 0.00 75 1021.4
20260502050011 10 291 0.0 0.0 0.00 0.00 0.00 75 1021.4
20260502044508 10 291 0.0 0.0 0.00 0.00 0.00 74 1021.3
20260502043006 10 291 0.0 0.0 0.00 0.00 0.00 74 1021.2
20260502041505 10 291 0.0 0.0 0.00 0.00 0.00 74 1021.3
20260502040007 10 291 0.0 0.0 0.00 0.00 0.00 74 1021.2
20260502034501 10 291 0.0 0.0 0.00 0.00 0.00 72 1021.2
20260502033100 10 291 0.0 0.0 0.00 0.00 0.00 70 1021.2
20260502031559 10 291 0.0 0.0 0.00 0.00 0.00 65 1021.2
20260502030110 10 291 0.0 0.0 0.00 0.00 0.00 70 1021.3
20260502024557 10 291 0.0 0.0 0.00 0.00 0.00 67 1021.3
20260502023100 10 291 0.0 0.0 0.00 0.00 0.00 69 1021.2
20260502021557 10 291 0.0 0.0 0.00 0.00 0.00 68 1021.2
20260502020054 10 291 0.0 0.0 0.00 0.00 0.00 67 1021.3
20260502014552 10 291 0.0 0.0 0.00 0.00 0.00 62 1021.3
20260502013056 10 291 0.0 0.0 0.00 0.00 0.00 62 1021.3
20260502011549 10 291 0.0 0.0 0.00 0.00 0.00 61 1021.4
20260502010053 11 291 0.0 0.0 0.00 0.00 0.00 60 1021.3
20260502004544 11 291 0.0 0.0 0.00 0.00 0.00 58 1021.4
20260502003041 11 291 0.0 0.0 0.00 0.00 0.00 57 1021.5
20260502001541 11 291 0.0 0.0 0.00 0.00 0.00 54 1021.5
20260502000040 12 291 0.0 0.0 0.00 0.00 0.00 53 1021.4
20260501234537 12 291 0.0 0.0 0.00 0.00 0.00 52 1021.6
20260501233044 12 291 0.0 0.0 0.00 0.00 0.00 52 1021.6
20260501231534 12 291 0.0 0.0 0.00 0.00 0.00 51 1021.6
20260501230030 13 291 0.0 0.0 0.00 0.00 0.00 49 1021.6
20260501224527 13 291 0.0 0.0 0.00 0.00 0.00 48 1021.6
20260501223035 13 291 0.0 0.0 0.00 0.00 0.00 48 1021.5
20260501221529 13 291 0.0 0.0 0.00 0.00 0.00 48 1021.5
20260501220021 14 291 0.0 0.0 0.00 0.00 0.00 48 1021.5
20260501214527 13 291 0.0 0.0 0.00 0.00 0.00 45 1021.5
20260501213020 13 291 0.0 0.0 0.00 0.00 0.00 48 1021.5
20260501211520 13 291 0.0 0.0 0.00 0.00 0.00 47 1021.5
20260501210019 14 291 0.0 0.0 0.00 0.00 0.00 46 1021.6
20260501204519 14 291 0.0 0.0 0.00 0.00 0.00 45 1021.6
20260501203026 15 291 0.0 0.0 0.00 0.00 0.00 43 1021.7
20260501201517 14 291 0.0 0.0 0.00 0.00 0.00 42 1021.8